Regional Weather Roundup
Issued by NWS

Current Version | Previous Version | Text Only | Print | Product List | Glossary On
Versions: 1 2 3 4 5 6 7 8 9 10 11 12 13 14 15 16 17 18 19 20 21 22 23 24 25 26 27 28 29 30 31 32 33 34 35 36 37 38 39 40 41 42 43 44 45 46 47 48 49 50
000
ASUS45 KPSR 281900
RWRAZ

PRELIMINARY ARIZONA REGIONAL HOURLY WEATHER ROUNDUP
NATIONAL WEATHER SERVICE PHOENIX AZ
1200 PM MST MON JUL 28 2014

NOTE: FAIR INDICATES FEW OR NO CLOUDS BELOW 12,000 FEET WITH NO
SIGNIFICANT WEATHER AND/OR OBSTRUCTIONS TO VISIBILITY.

AZZ001>003-036-282000-
NORTHWEST ARIZONA

CITY           SKY/WX    TMP DP  RH WIND       PRES   REMARKS
KINGMAN        MOSUNNY   92  53  26 MISG      30.19F
$$

AZZ004>008-015-016-018-282000-
NORTH CENTRAL ARIZONA

CITY           SKY/WX    TMP DP  RH WIND       PRES   REMARKS
GRAND CANYON   MOSUNNY   75  52  44 S7        30.43F
WILLIAMS       PTSUNNY   64  59  82 SE7       30.51S
PRESCOTT       PTSUNNY   83  53  35 SW13G18   30.31F
FLAGSTAFF      CLOUDY    72  47  40 CALM      30.46F
PAYSON         PTSUNNY   82  50  32 E8        30.35F
PAGE           SUNNY     91  53  27 S8        30.24F
$$

AZZ009>014-017-282000-
NORTHEAST ARIZONA

CITY           SKY/WX    TMP DP  RH WIND       PRES   REMARKS
WINSLOW        NOT AVBL
SAINT JOHNS    CLOUDY    76  55  48 SW9       30.38F
WINDOW ROCK    PTSUNNY   77  52  41 VRB6      30.44F
$$

AZZ023-282000-
GREATER PHOENIX AREA

CITY           SKY/WX    TMP DP  RH WIND       PRES   REMARKS
PHOENIX        PTSUNNY   99  56  23 VRB6      30.02F
BUCKEYE          N/A     97  59  28 SE8       30.03F
GLENDALE       PTSUNNY   99  57  25 E7        30.04F
DEER VALLEY    MOSUNNY   95  56  26 SW5       30.04F
SCOTTSDALE     MOSUNNY   97  58  27 SE6       30.06F
MESA-GATEWAY   MOSUNNY   97  57  26 SE5       30.07F
CHANDLER       PTSUNNY   99  57  25 NE10      30.04F
$$

AZZ027-028-282000-
SOUTHWEST MARICOPA COUNTY AND PINAL COUNTY

CITY           SKY/WX    TMP DP  RH WIND       PRES   REMARKS
CASA GRANDE    MOSUNNY   97  59  28 CALM      30.06F
GILA BEND      PTCLDY   100  59  25 NE8       30.02F HX 100
$$

AZZ503-504-507>509-282000-
SOUTHEAST ARIZONA

CITY           SKY/WX    TMP DP  RH WIND       PRES   REMARKS
TUCSON         PTSUNNY   90  59  35 CALM      30.16F
DAVIS-MONTHAN  MOSUNNY   88  60  38 SW3       30.15F
RYAN FIELD       N/A     91  59  33 CALM      30.15F
NOGALES        CLOUDY    80  62  54 SE8       30.25F
SIERRA VISTA   PTSUNNY   82  61  47 CALM      30.30F
SAFFORD        MOSUNNY   87  61  41 SE7       30.19F
$$

AZZ020-021-025-026-031-282000-
SOUTHWEST ARIZONA

CITY           SKY/WX    TMP DP  RH WIND       PRES   REMARKS
YUMA           NOT AVBL
$$

CAZ031-033-041-043-047-048-061-282000-
SOUTHERN CALIFORNIA

CITY           SKY/WX    TMP DP  RH WIND       PRES   REMARKS
DOWNTOWN L.A.  PTSUNNY   83  61  47 VRB3      30.05F
L.A. AIRPORT   PTSUNNY   80  55  42 W7        30.06F
SAN DIEGO      MOSUNNY   82  59  45 W8        30.07S
BURBANK        PTSUNNY   84  55  36 S6        30.07S
ONTARIO        CLOUDY    82  54  37 W5        30.08F
RIVERSIDE      CLOUDY    85  52  32 W6        30.08F
PALM SPRINGS   PTSUNNY  101  57  23 NE5       29.98F HX 100
EL CENTRO NAS  MOSUNNY  101  61  26 SE7       29.93F HX 102
IMPERIAL       SUNNY    101  62  27 NE6       29.93F HX 102
BLYTHE           N/A    N/A N/A N/A MISG      29.98F
$$

NVZ020-UTZ003-282000-
SOUTHERN NEVADA-UTAH

CITY           SKY/WX    TMP DP  RH WIND       PRES   REMARKS
LAS VEGAS      NOT AVBL
SALT LAKE CITY PTSUNNY   91  47  21 SE7       30.16F
$$

NMZ009-TXZ055-282000-
NEW MEXICO-WEST TEXAS

CITY           SKY/WX    TMP DP  RH WIND       PRES   REMARKS
ALBUQUERQUE    PTSUNNY   79  53  40 SW8       30.38F
EL PASO        PTSUNNY   87  58  37 N8G21     30.24F
$$


........................KEY........................
SKY/WX - SKY CONDITION/WEATHER
TMP    - TEMPERATURE IN FAHRENHEIT
DP     - DEW POINT IN FAHRENHEIT
RH     - RELATIVE HUMIDITY IN PERCENT
WIND   - DIRECTION AND SPEED IN MILES PER HOUR (MPH)
VRB    - VARIABLE WIND DIRECTION
PRES   - MEAN SEA LEVEL PRESSURE IN INCHES OF MERCURY
         F - FALLING PRESSURE   R - RISING PRESSURE
         S - STEADY PRESSURE
VSB    - VISIBILITY IN MILES
HX     - HEAT INDEX IN FAHRENHEIT
WCI    - WIND CHILL INDEX IN FAHRENHEIT
TC     - TEMPERATURE IN CELSIUS WHICH IS ALSO KNOWN AS
         TEMPERATURE IN CENTIGRADE
AFB    - AIR FORCE BASE
         LUKE AFB IS LUKE AIR FORCE BASE
         DAVIS-MONTHAN IS DAVIS-MONTHAN AIR FORCE BASE
NAS    - NAVAL AIR STATION
         EL CENTRO NAS IS EL CENTRO NAVAL AIR STATION
N/A    - NOT AVAILABLE


USA.gov is the U.S. government's official web portal to all federal, state and local government web resources and services.